Regional Weather Roundup
Issued by NWS

Home | Current Version | Previous Version | Text Only | Print | Product List | Glossary Off
Versions: 1 2 3 4 5 6 7 8 9 10 11 12 13 14 15 16 17 18 19 20 21 22 23 24 25 26 27 28 29 30 31 32 33 34 35 36 37 38 39 40 41 42 43 44 45 46 47 48 49 50

000
ASUS43 KOAX 030102
RWRNE

WEATHER ROUNDUP FOR NEBRASKA
NATIONAL WEATHER SERVICE OMAHA NE
800 PM CDT TUE SEP 02 2014

NOTES: SATELLITE DATA IS BEING USED TO AUGMENT CLOUD COVER ABOVE
       12000 FEET.
       "FAIR" INDICATES FEW OR NO CLOUDS BELOW 12,000 FEET WITH NO
       SIGNIFICANT WEATHER AND/OR OBSTRUCTIONS TO VISIBILITY.

  * THESE STATIONS DO NOT REPORT WEATHER SUCH AS RAIN...SNOW OR FOG.

NEZ001>004-019>022-054>056-030200-
NEBRASKA PANHANDLE

CITY           SKY/WX    TMP DP  RH WIND       PRES   REMARKS
SCOTTSBLUFF    CLEAR     77  52  41 E7        29.85F
ALLIANCE       CLEAR     76  54  46 S7        29.86F
CHADRON        CLEAR     77  48  35 E6        29.81F
KIMBALL        CLEAR     77  44  30 S5        29.91F
SIDNEY         CLEAR     79  51  37 S8        29.91F
$$

NEZ057>060-069>072-079>082-030200-
SOUTHWEST NEBRASKA

CITY           SKY/WX    TMP DP  RH WIND       PRES   REMARKS
NORTH PLATTE   CLEAR     76  57  51 S9        29.87F
IMPERIAL       CLEAR     80  58  46 S13G24    29.88F
LEXINGTON      CLEAR     76  64  66 SE8       29.90S
MCCOOK         LGT RAIN  80  60  50 S12       29.90S
OGALLALA       CLEAR     78  55  46 S10       29.86F
$$

NEZ005>010-023>029-035>040-094-030200-
NORTH CENTRAL NEBRASKA

CITY           SKY/WX    TMP DP  RH WIND       PRES   REMARKS
VALENTINE      PTCLDY    79  62  56 S13       29.81F
AINSWORTH      PTCLDY    74  62  66 S8        29.85F
BROKEN BOW     CLEAR     76  60  57 S10       29.89F
O`NEILL        CLOUDY    75  61  61 SE7       29.89S
ORD            CLEAR     73  61  65 S9        29.88F
THEDFORD       CLEAR     77  59  53 S8        29.87F
$$

NEZ041-046>049-061>064-073>077-083>087-030200-
SOUTH CENTRAL NEBRASKA

CITY           SKY/WX    TMP DP  RH WIND       PRES   REMARKS
GRAND ISLAND   CLEAR     74  63  68 SE7       29.92F
AURORA         CLEAR     71  64  76 SE5       29.92S
HASTINGS       CLEAR     75  59  57 SE8       29.92S
HEBRON         CLEAR     73  62  68 SE3       29.92S
HOLDREGE       CLEAR     73  64  74 SE6       29.91S
KEARNEY *      CLEAR     72  63  73 SE7       29.92S
YORK           CLEAR     73 N/A N/A S6        29.93S
$$

NEZ011>018-030>034-042>045-030200-
NORTHEAST NEBRASKA

CITY           SKY/WX    TMP DP  RH WIND       PRES   REMARKS
NORFOLK        CLEAR     69  61  75 SE5       29.91F
ALBION         CLEAR     70  61  73 SE7       29.91F
BLAIR          CLEAR     72  63  74 SE3       29.93R
FREMONT        CLEAR     73  60  65 SE5       29.92S
TEKAMAH        CLEAR     74  64  71 CALM      29.90F
WAYNE          CLEAR     68  64  88 CALM      29.92R
$$

NEZ050>053-065>068-078-088>093-030200-
SOUTHEAST NEBRASKA

CITY           SKY/WX    TMP DP  RH WIND       PRES   REMARKS
LINCOLN        CLEAR     77  58  51 CALM      29.93S
OMAHA EPPLEY   PTCLDY    76  59  55 E3        29.92R
BEATRICE       CLEAR     78  60  54 E3        29.93R
FALLS CITY     CLEAR     76  64  66 E5        29.93R
NEBRASKA CITY  CLEAR     74  60  61 E5        29.94R
PLATTSMOUTH    CLEAR     73  59  59 SE3       29.94R
$$

NEZ044-045-051>053-067-030200-
OMAHA AREA

CITY           SKY/WX    TMP DP  RH WIND       PRES   REMARKS
OMAHA EPPLEY   PTCLDY    76  59  55 E3        29.92R
BLAIR          CLEAR     72  63  74 SE3       29.93R
FREMONT        CLEAR     73  60  65 SE5       29.92S
MILLARD        CLEAR     71  62  73 CALM      29.92R
OFFUTT AFB     CLEAR     73  60  62 SE6       29.93R
PLATTSMOUTH    CLEAR     73  59  59 SE3       29.94R
WAHOO          FAIR      71  62  72 SE6       29.93R
$$



USA.gov is the U.S. government's official web portal to all federal, state and local government web resources and services.